Weather History for Pierre, SD

Change the Weather History Date:

Sunday, September 8, 2013

  Actual Average Record
Temperature  
Mean Temperature 77 °F 66 °F  
Max Temperature 88 °F 80 °F 102 °F (1959)
Min Temperature 66 °F 53 °F 39 °F (1992)
Degree Days  
Heating Degree Days 0 3  
Month to date heating degree days 0 18  
Since 1 July heating degree days 9 38  
Cooling Degree Days 12 4  
Month to date cooling degree days 93 42  
Year to date cooling degree days 779 819  
Growing Degree Days 26 (Base 50)    
Moisture  
Dew Point 67 °F    
Average Humidity 75    
Maximum Humidity 93    
Minimum Humidity 57    
Precipitation  
Precipitation 0.01 in 0.06 in 1.11 in (1985)
Month to date precipitation 0.04 0.46  
Year to date precipitation 16.96 15.64  
Sea Level Pressure  
Sea Level Pressure 29.82 in    
Wind  
Wind Speed 14 mph (ENE)    
Max Wind Speed 28 mph    
Max Gust Speed 32 mph    
Visibility 10 miles    
Events Rain    
T = Trace of Precipitation, MM = Missing Value Source: NWS Daily Summary

Daily Weather History Graph

Daily Weather History Graph

Search for Another Location

Airport:

Trip Planner

Search our weather history database for the weather conditions in past years. The results will help you decide how hot, cold, wet, or windy it might be!

Date:

Astronomy

Sep. 08, 2013 Rise Set
Actual Time 7:12 AM CDT 8:04 PM CDT
Civil Twilight 6:42 AM CDT 8:33 PM CDT
Nautical Twilight 6:07 AM CDT 9:08 PM CDT
Astronomical Twilight 5:30 AM CDT 9:45 PM CDT
Moon 10:41 AM CDT (9/8) 9:30 PM CDT (9/8)
Length of Visible Light 13h 50m
Length of Day
12h 51m
Waxing Crescent, 11% of the Moon is Illuminated
Sep 8
Waxing Crescent
Sep 12
First Quarter
Sep 19
Full
Sep 26
Last Quarter
Oct 4
New

Hourly Weather History & Observations

Time (CDT) Temp. Heat Index Dew Point Humidity Pressure Visibility Wind Dir Wind Speed Gust Speed Precip Events Conditions
12:53 AM 75.0 °F - 64.9 °F 71% 29.89 in 10.0 mi ENE 10.4 mph - N/A   Clear
1:53 AM 73.9 °F - 66.9 °F 79% 29.96 in 10.0 mi North 21.9 mph 32.2 mph N/A   Clear
2:53 AM 68.0 °F - 62.1 °F 81% 29.96 in 10.0 mi NE 20.7 mph 27.6 mph 0.00 in Rain Light Rain
3:53 AM 66.0 °F - 62.1 °F 87% 29.87 in 9.0 mi ENE 16.1 mph 25.3 mph 0.01 in Rain Light Rain
4:53 AM 66.0 °F - 64.0 °F 93% 29.91 in 10.0 mi NNE 12.7 mph - 0.00 in   Clear
5:53 AM 66.0 °F - 64.0 °F 93% 29.89 in 10.0 mi NE 15.0 mph - N/A   Partly Cloudy
6:36 AM 66.2 °F - 64.4 °F 94% 29.98 in 10.0 mi NNE 12.7 mph - N/A   Mostly Cloudy
6:53 AM 66.9 °F - 64.0 °F 90% 29.93 in 10.0 mi NNE 12.7 mph - N/A   Overcast
7:53 AM 68.0 °F - 64.9 °F 90% 29.93 in 10.0 mi ENE 10.4 mph - N/A   Mostly Cloudy
8:53 AM 69.1 °F - 64.9 °F 87% 29.91 in 10.0 mi ENE 13.8 mph - N/A   Partly Cloudy
9:53 AM 77.0 °F - 66.9 °F 71% 29.88 in 10.0 mi ENE 15.0 mph - N/A   Clear
10:53 AM 82.0 °F 84.9 °F 68.0 °F 62% 29.86 in 10.0 mi East 17.3 mph - N/A   Clear
11:53 AM 82.0 °F 84.9 °F 68.0 °F 62% 29.85 in 10.0 mi SE 15.0 mph - N/A   Partly Cloudy
12:53 PM 84.0 °F 87.8 °F 69.1 °F 61% 29.81 in 10.0 mi ESE 17.3 mph 25.3 mph N/A   Partly Cloudy
1:53 PM 84.9 °F 88.8 °F 69.1 °F 59% 29.80 in 10.0 mi SE 21.9 mph 26.5 mph N/A   Scattered Clouds
2:53 PM 84.0 °F 87.0 °F 68.0 °F 58% 29.78 in 10.0 mi SE 10.4 mph 20.7 mph N/A   Overcast
3:53 PM 84.0 °F 87.0 °F 68.0 °F 58% 29.77 in 10.0 mi ESE 10.4 mph - N/A   Overcast
4:53 PM 84.9 °F 88.8 °F 69.1 °F 59% 29.75 in 10.0 mi ESE 9.2 mph - N/A   Scattered Clouds
5:53 PM 86.0 °F 90.1 °F 69.1 °F 57% 29.72 in 10.0 mi ENE 11.5 mph - N/A   Partly Cloudy
6:53 PM 86.0 °F 90.1 °F 69.1 °F 57% 29.71 in 10.0 mi ENE 5.8 mph - N/A   Partly Cloudy
7:53 PM 82.9 °F 85.8 °F 68.0 °F 60% 29.69 in 10.0 mi NE 9.2 mph - N/A   Partly Cloudy
8:53 PM 75.9 °F - 69.1 °F 79% 29.69 in 10.0 mi NE 11.5 mph - N/A   Clear
9:53 PM 75.0 °F - 69.1 °F 82% 29.68 in 10.0 mi ENE 10.4 mph - N/A   Clear
10:53 PM 73.9 °F - 69.1 °F 85% 29.66 in 10.0 mi ENE 6.9 mph - N/A   Clear
11:53 PM 77.0 °F - 70.0 °F 79% 29.62 in 10.0 mi ESE 17.3 mph 25.3 mph N/A   Clear